SCP
0 0 0 0 0 0 0 0 0 0 0 0 0 0 0 0 0 0 0 0 0 0 0 0 0 0 0 0 0 0 0 0 0 0 0 0 0 0 0 0 0 0 0
0 0 0 0 0 0 0 0 0 0 0 0 0 0 0 0 0 0 0 0 0 0 0 0 0 0 0 0 0 0 0 0 0 0 0 0 0 0 0 0 0 0 0
0 0 0 0 0 0 0 0 0 0 0 0 0 0 0 0 0 0 0 0 0 0 0 0 0 0 0 0 0 0 0 0 0 0 0 0 0 0 0 0 0 0 0
0 0 0 0 0 0 0 0 0 0 0 0 0 0 0 0 0 0 0 0 0 0 0 0 0 0 0 0 0 0 0 0 0 0 0 0 0 0 0 0 0 0 0
0 0 0 0 0 0 0 0 0 0 0 0 0 0 0 0 0 0 0 0 0 0 0 0 0 0 0 0 0 0 0 0 0 0 0 0 0 0 0 0 0 0 0
0 0 0 0 0 0 0 0 0 0 0 0 0 0 0 0 0 0 0 0 0 0 0 0 0 0 0 0 0 0 0 0 0 0 0 0 0 0 0 0 0 0 0
0 0 0 0 0 0 0 0 0 0 0 0 0 0 0 0 0 0 0 0 0 0 0 0 0 0 0 0 0 0 0 0 0 0 0 0 0 0 0 0 0 0 0
0 0 0 0 0 0 0 0 0 0 0 0 0 0 0 0 0 0 0 0 0 0 0 0 0 0 0 0 0 0 0 0 0 0 0 0 0 0 0 0 0 0 0
0 0 0 0 0 0 0 0 0 0 0 0 0 0 0 0 0 0 0 0 0 0 0 0 0 0 0 0 0 0 0 0 0 0 0 0 0 0 0 0 0 0 0
0 0 0 0 0 0 0 0 0 0 0 0 0 0 0 0 0 0 0 0 0 0 0 0 0 0 0 0 0 0 0 0 0 0 0 0 0 0 0 0 0 0 0
0 0 0 0 0 0 0 0 0 0 0 0 0 0 0 0 0 0 0 0 0 0 0 0 0 0 0 0 0 0 0 0 0 0 0 0 0 0 0 0 0 0 0
0 0 0 0 0 0 0 0 0 0 0 0 0 0 0 0 0 0 0 0 0 0 0 0 0 0 0 0 0 0 0 0 0 0 0 0 0 0 0 0 0 0 0
0 0 0 0 0 0 0 0 0 0 0 0 0 0 0 0 0 0 0 0 0 0 0 0 0 0 0 0 0 0 0 0 0 0 0 0 0 0 0 0 0 0 0
0 0 0 0 0 0 0 0 0 0 0 0 0 0 0 0 0 0 0 0 0 0 0 0 0 0 0 0 0 0 0 0 0 0 0 0 0 0 0 0 0 0 0
0 0 0 0 0 0 0 0 0 0 0 0 0 0 0 0 0 0 0 0 0 0 0 0 0 0 0 0 0 0 0 0 0 0 0 0 0 0 0 0 0 0 0
0 0 0 0 0 0 0 0 0 0 0 0 0 0 0 0 0 0 0 0 0 0 0 0 0 0 0 0 0 0 0 0 0 0 0 0 0 0 0 0 0 0 0
0 0 0 0 0 0 0 0 0 0 0 0 0 0 0 0 0 0 0 0 0 0 0 0 0 0 0 0 0 0 0 0 0 0 0 0 0 0 0 0 0 0 0
0 0 0 0 0 0 0 0 0 0 0 0 0 0 0 0 0 0 0 0 0 0 0 0 0 0 0 0 0 0 0 0 0 0 0 0 0 0 0 0 0 0 0
0 0 0 0 0 0 0 0 0 0 0 0 0 0 0 0 0 0 0 0 0 0 0 0 0 0 0 0 0 0 0 0 0 0 0 0 0 0 0 0 0 0 0
0 0 0 0 0 0 0 0 0 0 0 0 0 0 0 0 0 0 0 0 0 0 0 0 0 0 0 0 0 0 0 0 0 0 0 0 0 0 0 0 0 0 0
0 0 0 0 0 0 0 0 0 0 0 0 0 0 0 0 0 0 0 0 0 0 0 0 0 0 0 0 0 0 0 0 0 0 0 0 0 0 0 0 0 0 0
0 0 0 0 0 0 0 0 0 0 0 0 0 0 0 0 0 0 0 0 0 0 0 0 0 0 0 0 0 0 0 0 0 0 0 0 0 0 0 0 0 0 0
0 0 0 0 0 0 0 0 0 0 0 0 0 0 0 0 0 0 0 0 0 0 0 0 0 0 0 0 0 0 0 0 0 0 0 0 0 0 0 0 0 0 0
0 0 0 0 0 0 0 0 0 0 0 0 0 0 0 0 0 0 0 0 0 0 0 0 0 0 0 0 0 0 0 0 0 0 0 0 0 0 0 0 0 0 0
0 0 0 0 0 0 0 0 0 0 0 0 0 0 0 0 0 0 0 0 0 0 0 0 0 0 0 0 0 0 0 0 0 0 0 0 0 0 0 0 0 0 0
0 0 0 0 0 0 0 0 0 0 0 0 0 0 0 0 0 0 0 0 0 0 0 0 0 0 0 0 0 0 0 0 0 0 0 0 0 0 0 0 0 0 0
Wind_Speed
2 2 1 2 1 1 1 2 2 3 4 4 4 4 4 4 4 4 4 9 9 9 9 9 8 8 8 8 6 6 6 6 7 6 6 6 6 6 5 4 3 3 2
2 2 2 2 2 2 2 2 2 3 3 3 4 4 4 3 4 5 4 5 8 9 9 8 8 7 7 7 7 7 6 6 6 6 6 6 6 6 5 4 4 4 4
3 3 3 2 2 3 3 3 3 3 3 3 3 3 3 3 3 4 4 3 4 7 8 8 8 7 7 7 7 6 6 6 6 6 6 6 6 6 6 5 5 5 5
3 3 2 2 2 3 2 2 2 3 2 2 2 2 2 2 3 3 3 3 3 3 5 7 7 7 7 6 6 6 6 6 5 5 5 6 6 6 6 6 5 5 6
3 3 2 2 3 2 2 2 2 2 2 2 1 2 2 2 2 3 3 3 3 3 3 5 6 7 6 6 5 5 6 5 5 5 5 5 5 6 6 6 6 6 6
3 3 2 3 3 2 2 2 2 2 1 1 2 3 2 2 2 2 2 2 3 3 3 4 3 4 6 6 5 5 5 5 5 5 5 4 4 5 5 5 6 5 5
3 3 3 2 2 2 2 2 2 2 2 1 2 2 2 2 2 2 2 2 3 3 3 3 2 2 2 5 6 5 4 5 5 5 4 4 3 3 4 4 4 5 5
2 2 2 2 2 2 2 2 2 1 1 1 1 1 1 2 3 2 2 2 2 2 3 3 3 3 2 2 4 7 6 5 5 5 4 4 3 3 3 3 3 3 3
2 2 2 1 2 1 1 1 1 1 0 2 1 1 1 1 1 1 2 2 2 2 2 2 3 3 4 3 3 5 7 6 6 5 5 4 3 3 3 3 3 3 3
1 2 2 1 1 1 2 1 1 1 0 0 1 1 1 1 1 0 1 1 2 2 2 2 3 3 3 3 5 7 7 6 6 6 6 6 5 4 3 2 2 2 2
1 1 2 1 1 1 0 1 1 1 0 0 0 1 1 0 0 1 0 1 1 1 1 2 2 3 3 3 3 5 7 7 7 7 7 7 6 5 4 3 2 1 1
1 1 2 1 1 0 0 1 1 0 0 0 0 0 0 0 0 1 1 0 0 1 1 2 2 2 2 2 4 6 6 6 6 7 7 7 6 5 4 4 3 1 1
1 1 1 1 1 1 1 1 0 0 0 0 0 1 0 0 0 1 1 0 0 1 1 1 1 2 2 2 2 5 4 4 5 5 6 6 6 5 5 4 3 2 0
1 1 2 1 1 1 1 1 0 1 0 0 1 1 0 0 0 1 1 1 0 1 0 0 1 1 2 2 2 2 2 3 3 3 4 5 5 5 5 4 4 3 2
1 1 1 2 1 1 1 1 0 1 0 0 0 0 0 0 0 1 1 2 2 1 1 1 0 0 1 1 1 1 1 1 2 2 3 3 4 4 5 4 4 4 3
1 1 1 1 1 2 2 1 0 1 0 0 0 1 0 0 0 1 1 1 1 1 1 1 0 1 1 1 1 1 1 1 1 1 2 2 3 4 4 4 3 3 2
1 0 1 1 2 2 1 1 1 1 1 1 1 1 1 0 0 0 0 0 0 1 1 1 0 1 1 1 1 0 1 1 0 1 1 1 2 2 3 3 3 3 2
0 0 0 1 1 1 1 2 2 1 1 2 2 1 1 0 0 0 1 0 0 1 2 1 0 0 1 1 1 1 0 1 1 1 1 1 1 2 2 3 3 2 3
1 0 0 0 0 1 1 1 1 1 1 2 2 2 2 1 1 1 1 1 0 1 1 1 1 1 1 1 1 1 1 1 1 1 1 1 0 1 1 2 2 2 2
1 1 1 1 0 0 0 0 1 1 1 2 2 1 1 2 2 2 1 1 1 1 1 1 1 1 0 1 1 0 1 1 1 1 0 1 2 1 1 1 0 1 1
1 1 1 1 1 1 0 0 1 1 2 2 1 1 1 1 1 1 1 2 2 2 1 1 1 1 1 0 1 1 1 1 1 1 0 1 1 1 1 2 1 1 1
1 1 1 1 1 1 2 2 1 1 2 1 1 1 1 1 1 1 1 0 1 2 2 2 2 2 2 2 1 1 1 1 2 2 1 2 1 1 1 1 2 2 2
1 1 0 1 0 0 2 2 2 2 2 2 1 1 1 1 1 1 1 1 1 2 3 3 3 3 3 3 2 2 2 1 2 2 0 2 1 2 2 2 4 4 3
1 1 1 1 1 0 1 1 3 2 2 1 1 1 1 1 0 0 1 1 2 2 3 2 2 3 2 2 3 3 3 2 1 1 1 1 2 2 2 2 5 5 5
1 1 1 1 1 0 1 1 1 2 2 1 1 1 1 0 1 1 1 1 1 2 2 2 2 2 2 2 2 1 1 1 2 2 1 1 2 2 2 2 3 5 5
1 2 2 1 1 1 1 1 1 1 1 1 1 0 1 1 2 1 0 1 2 2 2 2 2 2 3 3 3 3 3 2 2 2 2 2 1 0 2 2 2 2 3
Wind_Direction
84 83 79 69 71 65 64 40 41 54 53 40 36 48 55 59 71 84 93 92 87 82 80 82 82 82 82 81 80 79 76 69 66 63 58 52 50 50 50 49 52 59 67
83 83 78 59 58 45 41 42 46 60 63 55 41 40 38 47 68 85 95 96 91 85 80 79 82 83 79 77 75 75 75 70 65 63 56 52 49 45 44 51 61 69 67
80 77 73 59 45 49 44 34 36 50 63 62 56 53 45 38 57 78 89 93 94 86 81 76 77 80 76 73 72 73 75 72 68 63 57 53 51 47 47 51 57 67 69
74 73 74 74 60 57 51 48 41 40 50 51 49 49 51 47 52 70 87 95 94 93 88 83 78 77 73 67 66 68 70 70 65 63 60 56 51 51 51 54 58 70 72
69 73 68 63 63 56 47 44 43 39 50 51 70 72 60 61 55 64 79 86 92 97 97 95 86 78 68 64 60 60 63 64 63 62 62 59 57 58 57 60 61 69 73
66 76 82 73 63 61 49 49 43 26 50 44 49 64 74 87 66 54 64 73 72 79 94 101 97 77 68 60 49 53 57 58 57 55 54 55 58 57 56 59 58 63 69
61 65 66 72 69 74 68 62 59 30 21 50 57 38 30 57 67 75 62 67 70 66 68 83 90 86 78 65 48 44 51 50 48 46 50 54 56 58 60 63 62 59 60
71 82 84 81 72 73 68 69 71 50 349 3 63 85 47 13 3 45 71 68 62 62 60 68 62 72 78 75 48 46 44 42 35 36 41 43 49 63 78 74 68 63 60
72 70 78 82 105 102 99 100 110 91 354 324 18 68 105 145 320 359 53 63 63 60 54 51 55 57 69 70 58 43 44 40 37 35 33 34 38 56 78 77 76 75 68
84 86 77 78 81 104 121 176 125 121 124 306 329 343 57 121 134 352 340 32 59 66 67 53 59 54 60 73 68 56 50 46 38 35 32 26 32 50 68 71 88 88 87
88 102 98 80 64 71 174 141 92 104 109 84 339 327 345 7 109 131 183 342 7 19 63 73 66 58 55 63 74 62 58 53 41 32 28 26 37 47 49 43 58 85 105
146 156 123 119 101 95 25 81 78 103 47 330 337 336 92 60 267 120 153 181 14 311 59 81 76 72 70 58 63 66 69 63 48 36 28 27 32 33 30 28 29 55 119
147 164 130 138 150 163 151 113 10 246 230 204 316 302 238 214 165 108 121 155 355 292 58 84 104 95 81 73 64 66 65 64 51 36 27 25 27 23 21 16 16 15 75
175 165 157 156 167 138 116 123 136 281 10 54 320 311 340 316 60 104 130 129 96 320 8 196 82 91 92 91 88 78 53 57 50 37 28 23 20 16 13 10 14 18 39
162 139 147 146 156 127 112 107 121 294 336 65 286 288 277 274 151 143 140 148 151 197 283 251 84 139 111 101 125 116 91 50 49 43 31 19 12 12 9 9 19 27 35
75 116 113 131 134 121 117 129 164 277 255 255 291 345 322 276 138 123 150 199 160 154 211 270 239 198 118 120 122 109 128 106 88 69 45 26 19 20 18 15 18 25 32
44 32 130 125 138 144 151 161 177 218 214 255 250 248 261 204 103 116 154 219 204 137 166 271 259 128 87 119 90 124 132 154 143 141 99 37 18 20 21 17 13 15 17
134 273 167 136 159 158 167 170 191 207 204 226 240 232 236 195 161 162 162 195 189 169 152 185 243 156 185 168 166 204 246 162 171 184 169 108 42 17 18 15 12 10 13
84 340 359 53 165 163 184 188 190 206 216 225 230 220 215 174 198 209 186 189 191 123 127 151 211 225 221 165 102 321 310 324 246 186 174 211 200 1 2 8 20 30 27
45 22 352 343 6 266 153 196 246 226 231 246 257 236 217 188 192 199 195 190 157 132 135 141 189 230 223 200 126 228 308 304 295 282 240 226 198 232 259 280 3 27 25
12 13 1 6 8 337 14 61 292 283 251 236 253 261 249 203 189 194 201 190 161 146 156 181 206 213 226 198 218 216 241 260 276 263 257 254 216 232 247 250 259 288 281
341 348 338 337 345 357 27 25 358 302 292 249 241 268 253 175 105 82 63 225 177 179 191 198 217 211 219 208 206 226 232 255 283 265 203 265 210 225 231 211 223 242 252
283 304 305 309 297 40 25 6 344 295 275 261 243 246 277 272 144 165 207 247 271 262 233 216 216 227 212 205 189 210 232 231 247 245 198 271 256 240 243 215 212 218 232
234 247 254 268 247 302 3 347 321 308 286 269 249 248 245 172 1 205 196 207 225 253 252 239 228 238 241 216 191 201 208 228 268 275 133 250 270 256 249 231 219 217 230
239 241 228 243 225 6 359 341 347 302 302 316 14 6 348 49 334 282 208 211 228 258 259 240 246 239 239 243 228 167 208 209 261 258 214 214 257 267 256 238 229 225 233
228 235 232 218 164 134 26 11 354 294 306 319 325 350 3 348 348 5 227 216 238 253 249 247 249 258 234 227 232 204 194 210 253 259 227 198 254 289 293 268 237 235 238